OBJECT BC, 63260

Orbit data source: Space-Track

You're viewing an uncataloged RSO

Recently launched and/or uncataloged RSOs may have evolving metadata. Metadata may include the following, but is not limited to: Owner, Manufacturer, Bus, Motor, and Mission.

OBJECT BC, 63260 is a satellite in SSO that was launched on Sat, 15 Mar 2025 UTC via an FALCON 9 launch vehicle from the Air Force Western Test Range (AFWTR). Unknown objects in Earth's orbit typically refer to objects detected orbiting the Earth but have not yet been identified or cataloged. These objects could be anything from previously untracked satellites, spent rocket stages, debris from satellite collisions, or even natural meteoroids temporarily captured by Earth's gravity.

Loading next visibility...
Identifier
63260, 2025-052BC
Orbit
SSO
Country
Flag of TBDTBD
Related business
Manufacturer
Yonsei U
Mission
Operational Amateur Technology
Bus & Motor
CUBESAT 3U, Unknown motor
Mass
5 kg wet, 5 kg dry
Launch date (UTC)
2025-03-15 (2 years ago)
Launch vehicle
FALCON 9
Launch site
Air Force Western Test Range (AFWTR)
Object type
Unknown
Shape & HBR
Box + 4 Pan + 1 Sail, 0.5 m
Radar Cross Section
0.090 m², Medium (>0.1 m² and < 1m²)

Expand to show TLE details & history
Last TLE update: 20 hours ago

TLE from 20 hours ago
0 OBJECT BC
1 63260U 25052BC  26264.94748062  .00000460  00000-0  47273-4 0  9998
2 63260  97.6692 154.2691 0002431  46.8395 313.3028 14.94904836 83088
Epoch: 2026-09-21T22:44Z
TLE epoch observation values (Epoch: 2026-09-21T22:44:22.325Z)
Latitude
-0.00009°
Longitude
172.35609°
Altitude
584.556 km
Speed
7.569 km/s
True Right ascension
10h 17m 04s
True Declination
0° 00' 00"
Sunlit
Object was in daylight at epoch
Visualization orbit readout
Latitude
Unknown
Longitude
Unknown
Altitude
Unknown
Speed
Unknown
Apparent Right ascension
Unknown
Apparent Declination
Unknown
Sunlit
N/A
Visualization observer readout
Local Sidereal Time
11:59:15
Azimuth
Unknown
Elevation
Unknown
Doppler factor
Unknown
Orbital elements
Apogee altitude
581.37 km
Perigee altitude
577.987 km
Semi-major axis
6,957.816 km
Eccentricity
0.00024
Inclination
97.6692°
RAAN
154.2691°
Arg. of periapsis
46.8395°
True anomaly
313.28252°
Mean anomaly
313.3028°
Eccentric anomaly
313.29266°
Mean motion
3.73967 °/min
Orbital period
96.27 mins
BSTAR
0.000047273
Loading maneuver chart data...
Computing Atmospheric mass density...
Loading historical data...
Loading historical data...
Loading historical data...
Loading historical data...
Loading historical data...
Loading historical data...
Loading historical data...

Documentation

Showing up to 5 results
|